FW9285 Weather Reports


Display with metric or nautical units.
time (UTC)temp
F
wind
direction
speed
MPH
gust
MPH
rain 1hr
in
rain 24hr
in
rain mn
in
humidity
%
barometer
mb
20260906131725 78 212 1.0 2.0 0.00 0.00 0.00 59 1011.2
20260906130724 78 230 1.0 3.0 0.00 0.00 0.00 58 1011.3
20260906125723 78 201 2.0 4.0 0.00 0.00 0.00 58 1011.5
20260906124723 78 191 2.0 3.0 0.00 0.00 0.00 58 1011.2
20260906123725 78 201 2.0 2.0 0.00 0.00 0.00 57 1011.0
20260906122724 78 192 1.0 2.0 0.00 0.00 0.00 56 1011.0
20260906121723 78 243 2.0 2.0 0.00 0.00 0.00 57 1010.8
20260906120726 79 224 0.0 3.0 0.00 0.00 0.00 58 1010.8
20260906115724 78 219 2.0 4.0 0.00 0.00 0.00 58 1010.8
20260906114724 79 183 3.0 4.0 0.00 0.00 0.00 58 1010.8
20260906113725 78 215 2.0 2.0 0.00 0.00 0.00 59 1010.8
20260906111723 79 243 2.0 3.0 0.00 0.00 0.00 57 1010.9
20260906105723 79 192 2.0 3.0 0.00 0.00 0.00 55 1010.9
20260906104724 79 224 1.0 2.0 0.00 0.00 0.00 55 1010.9
20260906103723 80 238 1.0 2.0 0.00 0.00 0.00 54 1011.0
20260906102723 80 239 2.0 3.0 0.00 0.00 0.00 53 1010.5
20260906101726 80 240 2.0 2.0 0.00 0.00 0.00 52 1010.7
20260906100723 80 229 2.0 2.0 0.00 0.00 0.00 52 1010.6
20260906095723 80 244 2.0 2.0 0.00 0.00 0.00 52 1010.7
20260906094723 80 243 2.0 2.0 0.00 0.00 0.00 51 1010.6
20260906093723 80 251 2.0 2.0 0.00 0.00 0.00 52 1010.5
20260906092723 80 223 1.0 2.0 0.00 0.00 0.00 53 1010.4
20260906091724 80 236 1.0 2.0 0.00 0.00 0.00 53 1010.4
20260906090723 81 237 2.0 2.0 0.00 0.00 0.00 53 1010.8
20260906085723 81 210 2.0 2.0 0.00 0.00 0.00 53 1010.9
20260906083723 82 203 1.0 2.0 0.00 0.00 0.00 50 1010.8
20260906082723 82 232 2.0 2.0 0.00 0.00 0.00 50 1010.9
20260906081723 82 246 2.0 2.0 0.00 0.00 0.00 49 1010.9
20260906080723 83 237 1.0 3.0 0.00 0.00 0.00 49 1011.0
20260906075723 83 216 1.0 3.0 0.00 0.00 0.00 48 1011.0
20260906074723 83 200 1.0 2.0 0.00 0.00 0.00 49 1011.0
20260906073723 84 221 2.0 3.0 0.00 0.00 0.00 47 1011.0
20260906072724 85 206 2.0 3.0 0.00 0.00 0.00 45 1011.2
20260906071723 84 257 2.0 2.0 0.00 0.00 0.00 45 1011.3
20260906070724 85 273 1.0 2.0 0.00 0.00 0.00 45 1011.2
20260906064723 86 320 1.0 1.0 0.00 0.00 0.00 44 1011.1
20260906063723 86 241 0.0 2.0 0.00 0.00 0.00 43 1011.3
20260906062724 87 350 0.0 2.0 0.00 0.00 0.00 42 1011.1
20260906061723 86 301 0.0 2.0 0.00 0.00 0.00 45 1011.0
20260906060723 87 351 1.0 2.0 0.00 0.00 0.00 43 1011.2
20260906055723 87 78 0.0 1.0 0.00 0.00 0.00 43 1011.2
20260906054723 87 283 0.0 0.0 0.00 0.00 0.00 42 1011.3
20260906052723 88 236 1.0 3.0 0.00 0.00 0.00 39 1011.3
20260906051723 89 283 1.0 2.0 0.00 0.00 0.00 39 1011.6
20260906050723 88 294 2.0 2.0 0.00 0.00 0.00 39 1011.2
20260906044723 89 318 1.0 2.0 0.00 0.00 0.00 40 1011.1
20260906043723 89 321 0.0 2.0 0.00 0.00 0.00 38 1011.2
20260906042723 90 315 0.0 2.0 0.00 0.00 0.00 38 1011.1
20260906041723 91 314 1.0 2.0 0.00 0.00 0.00 37 1011.2
20260906040725 90 311 2.0 2.0 0.00 0.00 0.00 38 1011.2
20260906035723 90 310 0.0 2.0 0.00 0.00 0.00 38 1011.1
20260906034724 91 324 1.0 2.0 0.00 0.00 0.00 37 1011.1
20260906033726 91 352 0.0 2.0 0.00 0.00 0.00 37 1011.0
20260906030723 92 336 1.0 4.0 0.00 0.00 0.00 35 1010.8
20260906024725 93 327 2.0 4.0 0.00 0.00 0.00 34 1010.4
20260906023722 93 318 2.0 4.0 0.00 0.00 0.00 34 1010.5
20260906022723 94 159 1.0 6.0 0.00 0.00 0.00 33 1010.5
20260906021730 94 339 3.0 5.0 0.00 0.00 0.00 32 1010.2
20260906020724 95 324 5.0 6.0 0.00 0.00 0.00 32 1010.3
20260906014723 96 322 2.0 6.0 0.00 0.00 0.00 33 1010.1
20260906013723 96 347 2.0 12.0 0.00 0.00 0.00 32 1010.4
20260906011724 97 319 2.0 8.0 0.00 0.00 0.00 34 1010.0
20260906010724 98 356 2.0 5.0 0.00 0.00 0.00 34 1010.1
20260906005724 99 335 2.0 4.0 0.00 0.00 0.00 33 1010.0
20260906004723 99 11 0.0 4.0 0.00 0.00 0.00 33 1010.2
20260906003723 100 351 2.0 6.0 0.00 0.00 0.00 32 1010.2
20260906002723 100 248 4.0 8.0 0.00 0.00 0.00 32 1010.2
20260906001726 101 217 2.0 11.0 0.00 0.00 0.00 31 1010.2
20260906000723 101 249 2.0 10.0 0.00 0.00 0.00 31 1010.1
20260905235723 103 286 3.0 7.0 0.00 0.00 0.00 30 1010.0
20260905234723 103 329 0.0 7.0 0.00 0.00 0.00 30 1010.1
20260905233723 102 269 1.0 5.0 0.00 0.00 0.00 30 1010.1
20260905231723 101 247 3.0 11.0 0.00 0.00 0.00 31 1010.1
20260905230723 102 295 2.0 8.0 0.00 0.00 0.00 31 1010.4
20260905224723 101 336 2.0 10.0 0.00 0.00 0.00 31 1010.2
20260905222726 103 254 3.0 10.0 0.00 0.00 0.00 31 1010.5
20260905221724 102 351 2.0 8.0 0.00 0.00 0.00 31 1010.7
20260905220723 101 171 2.0 6.0 0.00 0.00 0.00 32 1010.7
20260905215723 102 163 1.0 10.0 0.00 0.00 0.00 31 1010.8
20260905213723 102 211 6.0 8.0 0.00 0.00 0.00 31 1011.0
20260905212724 101 352 4.0 7.0 0.00 0.00 0.00 32 1011.5
20260905211723 100 358 3.0 7.0 0.00 0.00 0.00 33 1011.5
20260905210723 101 344 2.0 7.0 0.00 0.00 0.00 32 1011.3
20260905205723 100 74 2.0 8.0 0.00 0.00 0.00 33 1011.7
20260905203725 100 247 2.0 6.0 0.00 0.00 0.00 33 1012.0
20260905202723 100 327 1.0 7.0 0.00 0.00 0.00 33 1012.0
20260905201723 100 297 4.0 9.0 0.00 0.00 0.00 33 1012.4
20260905200722 99 40 2.0 6.0 0.00 0.00 0.00 35 1012.3
20260905195722 100 135 2.0 7.0 0.00 0.00 0.00 33 1012.5
20260905193723 99 183 2.0 7.0 0.00 0.00 0.00 33 1012.7
20260905192723 98 214 3.0 6.0 0.00 0.00 0.00 34 1012.7
20260905190723 98 161 0.0 4.0 0.00 0.00 0.00 34 1013.4
20260905183723 98 155 3.0 4.0 0.00 0.00 0.00 33 1013.8
20260905182724 99 146 3.0 4.0 0.00 0.00 0.00 34 1013.6
20260905181723 97 154 0.0 5.0 0.00 0.00 0.00 36 1014.0
20260905180723 95 223 1.0 6.0 0.00 0.00 0.00 38 1014.1
20260905175724 96 243 0.0 5.0 0.00 0.00 0.00 37 1014.1
20260905174723 95 140 0.0 4.0 0.00 0.00 0.00 38 1014.1
20260905173724 94 236 4.0 5.0 0.00 0.00 0.00 39 1014.1
20260905172724 94 65 0.0 4.0 0.00 0.00 0.00 40 1014.2
20260905171722 94 236 4.0 4.0 0.00 0.00 0.00 38 1014.2
20260905170726 94 169 2.0 4.0 0.00 0.00 0.00 40 1014.3
20260905165723 92 223 2.0 5.0 0.00 0.00 0.00 41 1014.4
20260905164723 92 230 1.0 7.0 0.00 0.00 0.00 43 1014.6
20260905163723 91 220 3.0 6.0 0.00 0.00 0.00 44 1014.5
20260905162723 90 247 3.0 6.0 0.00 0.00 0.00 45 1014.3
20260905161723 89 221 4.0 5.0 0.00 0.00 0.00 45 1014.2
20260905160725 88 234 3.0 6.0 0.00 0.00 0.00 48 1014.3
20260905155723 89 181 1.0 6.0 0.00 0.00 0.00 46 1014.0
20260905154723 88 222 3.0 5.0 0.00 0.00 0.00 49 1014.0
20260905153723 87 217 2.0 6.0 0.00 0.00 0.00 49 1014.1
20260905152724 86 186 1.0 3.0 0.00 0.00 0.00 52 1013.9
20260905151723 85 173 2.0 3.0 0.00 0.00 0.00 54 1013.9
20260905150723 84 201 2.0 4.0 0.00 0.00 0.00 53 1013.8
20260905144723 83 216 1.0 3.0 0.00 0.00 0.00 55 1013.6
20260905143724 83 197 2.0 3.0 0.00 0.00 0.00 54 1013.6
20260905141723 82 208 1.0 2.0 0.00 0.00 0.00 56 1013.5
20260905140724 82 247 1.0 2.0 0.00 0.00 0.00 56 1013.5
20260905135723 81 268 0.0 2.0 0.00 0.00 0.00 57 1013.4
20260905134723 80 202 0.0 2.0 0.00 0.00 0.00 59 1013.4
20260905133725 80 156 0.0 2.0 0.00 0.00 0.00 60 1013.2